Simultaneous Nadir Overpasses (SNOs) Predictions

Prediction of SNOs between GOES-16 and NPP Satellite Orbit:

Table of predicted SNOs for the next 14.0 days since TLE Epoch: 1/4/2025
Index Date Time (GOES-16) GOES-16 Lat,Lon NPP Lat,Lon Distance(km) Time Diff (sec)
1 01/04/2025 18:27:25 -0.01, -75.21 -0.16, -75.89 77.87 80
2 01/05/2025 18:11:21 -0.01, -75.21 0.86, -71.36 439.03 80
3 01/07/2025 06:33:10 0.00, -75.22 0.30, -76.64 161.76 80
4 01/08/2025 06:11:46 0.00, -75.22 -0.67, -72.10 355.11 80
5 01/09/2025 18:33:44 0.00, -75.24 -0.48, -77.42 247.38 80
6 01/10/2025 18:17:41 0.00, -75.25 0.56, -72.89 269.86 80
7 01/12/2025 06:39:29 -0.01, -75.26 0.65, -78.16 329.98 80
8 01/13/2025 06:18:06 -0.01, -75.27 -0.40, -73.63 187.44 80
9 01/14/2025 18:40:03 0.01, -75.30 -0.79, -78.94 414.07 80
10 01/15/2025 18:23:58 0.01, -75.32 0.21, -74.40 104.32 80
11 01/17/2025 06:45:47 -0.01, -75.35 0.99, -79.67 493.15 80
